Total_Precipitation_Accumulation
0.00 0.00 0.00 0.00 0.00 0.00 0.00 0.00 0.00 0.00 0.00 0.00 0.00 0.00 0.00 0.00 0.00 0.00 0.00 0.00 0.00 0.00 0.00 0.00 0.00 0.00 0.00 0.00 0.00 0.00 0.00 0.00 0.00 0.00 0.00 0.00 0.00 0.00 0.00 0.00 0.00 0.00 0.00 0.00 0.00
0.00 0.00 0.00 0.00 0.00 0.00 0.00 0.00 0.00 0.00 0.00 0.00 0.00 0.00 0.00 0.00 0.00 0.00 0.00 0.00 0.00 0.00 0.00 0.00 0.00 0.00 0.00 0.00 0.00 0.00 0.00 0.00 0.00 0.00 0.00 0.00 0.00 0.00 0.00 0.00 0.00 0.00 0.00 0.00 0.00
0.00 0.00 0.00 0.00 0.00 0.00 0.00 0.00 0.00 0.00 0.00 0.00 0.00 0.00 0.00 0.00 0.00 0.00 0.00 0.00 0.00 0.00 0.00 0.00 0.00 0.00 0.00 0.00 0.00 0.00 0.00 0.00 0.00 0.00 0.00 0.00 0.00 0.00 0.00 0.00 0.00 0.00 0.00 0.00 0.00
0.00 0.00 0.00 0.00 0.00 0.00 0.00 0.00 0.00 0.00 0.00 0.00 0.00 0.00 0.00 0.00 0.00 0.00 0.00 0.00 0.00 0.00 0.00 0.00 0.00 0.00 0.00 0.00 0.00 0.00 0.00 0.00 0.00 0.00 0.00 0.00 0.00 0.00 0.00 0.00 0.00 0.00 0.00 0.00 0.00
0.00 0.00 0.00 0.00 0.00 0.00 0.00 0.00 0.00 0.00 0.00 0.00 0.00 0.00 0.00 0.00 0.00 0.00 0.00 0.00 0.00 0.00 0.00 0.00 0.00 0.00 0.00 0.00 0.00 0.00 0.00 0.00 0.00 0.00 0.00 0.00 0.00 0.00 0.00 0.00 0.00 0.00 0.00 0.00 0.00
0.00 0.00 0.00 0.00 0.00 0.00 0.00 0.00 0.00 0.00 0.00 0.00 0.00 0.00 0.00 0.00 0.00 0.00 0.00 0.00 0.00 0.00 0.00 0.00 0.00 0.00 0.00 0.00 0.00 0.00 0.00 0.00 0.00 0.00 0.00 0.00 0.00 0.00 0.00 0.00 0.00 0.00 0.00 0.00 0.00
0.00 0.00 0.00 0.00 0.00 0.00 0.00 0.00 0.00 0.00 0.00 0.00 0.00 0.00 0.00 0.00 0.00 0.00 0.00 0.00 0.00 0.00 0.00 0.00 0.00 0.00 0.00 0.00 0.00 0.00 0.00 0.00 0.00 0.00 0.00 0.00 0.00 0.00 0.00 0.00 0.00 0.00 0.00 0.00 0.00
0.00 0.00 0.00 0.00 0.00 0.00 0.00 0.00 0.00 0.00 0.00 0.00 0.00 0.00 0.00 0.00 0.00 0.00 0.00 0.00 0.00 0.00 0.00 0.00 0.00 0.00 0.00 0.00 0.00 0.00 0.00 0.00 0.00 0.00 0.00 0.00 0.00 0.00 0.00 0.00 0.00 0.00 0.00 0.00 0.00
0.01 0.00 0.00 0.00 0.00 0.00 0.00 0.00 0.00 0.00 0.00 0.00 0.00 0.00 0.00 0.00 0.00 0.00 0.00 0.00 0.00 0.00 0.00 0.00 0.00 0.00 0.00 0.00 0.00 0.00 0.00 0.00 0.00 0.00 0.00 0.00 0.00 0.00 0.00 0.00 0.00 0.00 0.00 0.00 0.00
0.00 0.00 0.00 0.00 0.00 0.00 0.00 0.00 0.00 0.00 0.00 0.00 0.00 0.00 0.00 0.00 0.00 0.00 0.00 0.00 0.00 0.00 0.00 0.00 0.00 0.00 0.00 0.00 0.00 0.00 0.00 0.00 0.00 0.00 0.00 0.00 0.00 0.00 0.00 0.00 0.00 0.00 0.00 0.00 0.00
0.00 0.00 0.00 0.00 0.00 0.00 0.00 0.00 0.00 0.00 0.00 0.00 0.00 0.00 0.00 0.00 0.00 0.00 0.00 0.00 0.00 0.00 0.00 0.00 0.00 0.00 0.00 0.00 0.00 0.00 0.00 0.00 0.00 0.00 0.00 0.00 0.00 0.00 0.00 0.00 0.00 0.00 0.00 0.00 0.00
0.00 0.00 0.00 0.00 0.00 0.00 0.00 0.00 0.00 0.00 0.00 0.00 0.00 0.00 0.00 0.00 0.00 0.00 0.00 0.00 0.00 0.00 0.00 0.00 0.00 0.00 0.00 0.00 0.00 0.00 0.00 0.00 0.00 0.00 0.00 0.00 0.00 0.00 0.00 0.00 0.00 0.00 0.00 0.00 0.00
0.01 0.00 0.00 0.01 0.00 0.00 0.00 0.00 0.00 0.00 0.00 0.00 0.00 0.00 0.00 0.00 0.00 0.00 0.00 0.00 0.00 0.00 0.00 0.00 0.00 0.00 0.00 0.00 0.00 0.00 0.00 0.00 0.00 0.00 0.00 0.00 0.00 0.00 0.00 0.00 0.00 0.00 0.00 0.00 0.00
0.00 0.01 0.01 0.00 0.00 0.00 0.00 0.00 0.00 0.00 0.00 0.00 0.00 0.00 0.00 0.00 0.00 0.00 0.00 0.00 0.00 0.00 0.00 0.00 0.00 0.00 0.00 0.00 0.00 0.00 0.00 0.00 0.00 0.01 0.00 0.00 0.00 0.00 0.00 0.00 0.00 0.00 0.00 0.00 0.00
0.01 0.03 0.04 0.02 0.00 0.00 0.00 0.00 0.00 0.00 0.08 0.00 0.00 0.00 0.00 0.00 0.00 0.00 0.00 0.00 0.00 0.00 0.00 0.00 0.00 0.00 0.00 0.00 0.00 0.01 0.00 0.01 0.02 0.05 0.05 0.01 0.01 0.00 0.00 0.00 0.00 0.00 0.00 0.00 0.00
0.03 0.09 0.04 0.00 0.00 0.00 0.00 0.00 0.03 0.18 0.16 0.00 0.00 0.00 0.00 0.00 0.00 0.00 0.00 0.00 0.00 0.00 0.00 0.00 0.00 0.00 0.00 0.00 0.00 0.00 0.01 0.01 0.02 0.02 0.04 0.00 0.00 0.01 0.01 0.01 0.00 0.00 0.01 0.01 0.00
0.09 0.13 0.04 0.02 0.03 0.00 0.01 0.04 0.33 0.30 0.01 0.00 0.00 0.00 0.00 0.00 0.00 0.00 0.00 0.00 0.00 0.00 0.00 0.00 0.00 0.00 0.00 0.00 0.00 0.00 0.02 0.07 0.04 0.02 0.02 0.00 0.00 0.01 0.01 0.01 0.02 0.00 0.01 0.01 0.00
0.17 0.13 0.06 0.05 0.05 0.08 0.25 0.58 0.84 0.11 0.00 0.00 0.01 0.00 0.00 0.00 0.00 0.00 0.00 0.00 0.00 0.00 0.02 0.01 0.00 0.00 0.00 0.00 0.01 0.02 0.04 0.10 0.09 0.03 0.01 0.00 0.00 0.01 0.00 0.00 0.00 0.00 0.00 0.00 0.00
0.20 0.09 0.10 0.08 0.13 0.30 0.76 1.15 0.38 0.04 0.03 0.02 0.04 0.06 0.02 0.00 0.00 0.00 0.00 0.00 0.00 0.00 0.06 0.08 0.05 0.00 0.00 0.01 0.03 0.06 0.03 0.02 0.21 0.19 0.15 0.01 0.00 0.00 0.00 0.00 0.00 0.00 0.00 0.01 0.01
0.22 0.29 0.28 0.13 0.22 0.62 1.17 0.90 0.16 0.01 0.07 0.20 0.35 0.23 0.16 0.03 0.07 0.09 0.09 0.02 0.00 0.00 0.03 0.13 0.20 0.02 0.00 0.02 0.03 0.04 0.06 0.17 0.29 0.25 0.12 0.01 0.00 0.01 0.01 0.01 0.00 0.01 0.01 0.00 0.00
0.41 0.60 0.34 0.11 0.32 0.85 1.02 0.41 0.11 0.04 0.12 0.38 0.34 0.28 0.25 0.20 0.23 0.25 0.19 0.02 0.00 0.01 0.05 0.16 0.46 0.17 0.02 0.01 0.01 0.03 0.07 0.11 0.31 0.38 0.27 0.11 0.02 0.05 0.05 0.05 0.04 0.05 0.04 0.03 0.02
0.66 0.75 0.42 0.19 0.44 0.63 0.37 0.12 0.08 0.07 0.14 0.40 0.49 0.35 0.26 0.29 0.59 0.35 0.13 0.01 0.01 0.05 0.20 0.21 0.61 0.25 0.01 0.00 0.00 0.01 0.03 0.16 0.43 0.30 0.21 0.20 0.23 0.06 0.06 0.08 0.08 0.09 0.10 0.09 0.09
0.77 0.77 0.55 0.39 0.73 0.48 0.25 0.14 0.12 0.13 0.15 0.36 0.44 0.24 0.15 0.30 0.62 0.30 0.09 0.04 0.06 0.13 0.39 0.38 0.59 0.30 0.10 0.02 0.01 0.01 0.02 0.08 0.14 0.40 0.51 0.33 0.23 0.05 0.04 0.05 0.11 0.12 0.12 0.14 0.14
1.06 1.00 0.69 0.69 0.55 0.33 0.31 0.40 0.18 0.07 0.14 0.26 0.35 0.24 0.34 0.39 0.25 0.53 0.22 0.06 0.03 0.03 0.23 0.69 0.68 0.15 0.07 0.11 0.23 0.15 0.06 0.03 0.15 0.42 0.22 0.34 0.23 0.15 0.09 0.08 0.10 0.12 0.13 0.14 0.15
1.16 1.01 0.45 0.54 0.26 0.18 0.35 0.67 0.29 0.16 0.23 0.27 0.59 0.25 0.20 0.77 0.55 0.38 0.12 0.14 0.15 0.14 0.24 0.91 0.68 0.07 0.06 0.17 0.42 0.35 0.18 0.11 0.20 0.28 0.53 0.40 0.33 0.34 0.24 0.20 0.21 0.20 0.19 0.16 0.16
0.95 0.73 0.58 0.56 0.42 0.57 0.92 0.98 0.53 0.30 0.61 0.63 0.56 0.20 0.45 0.95 0.68 0.68 0.48 0.46 0.45 0.26 0.26 0.47 0.55 0.20 0.23 0.26 0.38 0.44 0.40 0.31 0.33 0.38 0.50 0.39 0.40 0.38 0.33 0.29 0.24 0.24 0.24 0.24 0.24
0.59 0.51 0.68 0.93 0.67 0.72 0.74 0.45 0.40 0.46 0.84 0.66 0.55 0.60 0.67 0.80 0.89 0.83 0.75 0.76 0.80 0.55 0.55 0.58 0.49 0.48 0.47 0.26 0.41 0.51 0.29 0.20 0.23 0.22 0.30 0.40 0.41 0.30 0.24 0.24 0.27 0.26 0.26 0.27 0.25